349P/Lemmon (2017)

Japanese version
Home page
Updated on July 7, 2017

---------------------------------------------------------------------

* Profile

Designation 349P/2017 B1
Recovery Date January 26, 2017
Magnitude 21.0 mag
Recoverer Pan-STARRS 1 telescope (Haleakala)

* Pictures

* Orbital Elements

Epoch 2017 Sept. 4.0 TT = JDT 2458000.5
T 2017 Aug. 26.73607 TT                                 MPCW
q   2.4985174            (2000.0)            P               Q
n   0.14596976     Peri.  255.97923     -0.67010938     +0.74088147
a   3.5724059      Node   331.78248     -0.63872316     -0.60662235
e   0.3006065      Incl.    5.49243     -0.37813508     -0.28827761
P   6.75
From 88 observations 2010 Mar. 14-2017 Apr. 20, mean residual 0".6.

* Magnitudes Graph

        m1 = 9.0 + 5 log d + 20.0 log r

---------------------------------------------------------------------

The orbital elements are published on M.P.E.C. 2017-J52.
The magnitudes graphs are made with Comet for Windows.

---------------------------------------------------------------------

Copyright(C) Seiichi Yoshida (comet@aerith.net). All rights reserved.